Regional Weather Roundup
Issued by NWS Cleveland, OH

Home | Current Version | Previous Version | Graphics & Text | Print | Product List | Glossary On
Versions: 1 2 3 4 5 6 7 8 9 10 11 12 13 14 15 16 17 18 19 20 21 22 23 24 25 26 27 28 29 30 31 32 33 34 35 36 37 38 39 40 41 42 43 44 45 46 47 48 49 50
000
ASUS41 KCLE 022002
RWRCLE
OHIO REGIONAL WEATHER ROUNDUP
NATIONAL WEATHER SERVICE CLEVELAND, OH
400 PM EDT THU JUL 02 2015

NOTE: "FAIR" INDICATES FEW OR NO CLOUDS BELOW 12,000 FEET WITH NO
SIGNIFICANT WEATHER AND/OR OBSTRUCTIONS TO VISIBILITY.

OHZ001>008-015>018-024>027-034-035-043-044-022100-
   NORTHWEST OHIO

CITY           SKY/WX    TMP DP  RH WIND       PRES   REMARKS
DEFIANCE       PTSUNNY   75  55  49 NE7       29.97S
FINDLAY        PTSUNNY   74  57  55 NE13      29.96S
TOLEDO EXPRESS MOSUNNY   73  54  51 NE10      29.98S
TOLEDO EXEC    MOSUNNY   71  54  54 E10G16    29.99F
LIMA           PTSUNNY   74  62  66 E10       29.95F
$$

OHZ009>014-019>023-028>033-038-089-022100-
   NORTHEAST OHIO

CITY           SKY/WX    TMP DP  RH WIND       PRES   REMARKS
CLE-HOPKINS    MOSUNNY   70  56  61 NE13      30.00S
CLE-LAKEFRONT  SUNNY     69  59  70 NE12      29.97F
CUY CO. ARPT   MOSUNNY   72  61  68 NE12      29.98F
LORAIN-ELYRIA  SUNNY     70  55  59 NE9G17    29.99R
ASHTABULA      SUNNY     70  57  63 NE7       29.98S
AKRON-CANTON   PTSUNNY   76  54  46 NE8       29.95S
WOOSTER        MOSUNNY   75  58  55 N8        29.97R
MANSFIELD      MOSUNNY   73  57  57 N8        29.97R
YOUNGSTOWN     PTSUNNY   75  56  51 N10       29.95F
$$

OHZ042-051>053-060>062-070>072-077>081-022100-
  SOUTHWEST OHIO

CITY           SKY/WX    TMP DP  RH WIND       PRES   REMARKS
CINC-COVINGTON LGT RAIN  75  67  76 NE9       29.88S
CINC-LUNKEN    MOSUNNY   78  69  73 NE9       29.88S
HAMILTON       PTSUNNY   78  67  68 E10       29.89F
DAYTON         PTSUNNY   76  63  64 NE14      29.92F
WRIGHT-PAT AFB PTSUNNY   75  63  64 E10       29.91F
DAYTON GENERAL MOSUNNY   74  66  76 NE10      29.90F
WILMINGTON     MOSUNNY   74  65  73 E9        29.90F
$$

OHZ036-037-039>041-045>050-054>059-063>069-073>076-082>088-022100-
  CENTRAL AND SOUTHEAST OHIO

CITY           SKY/WX    TMP DP  RH WIND       PRES   REMARKS
COLUMBUS       CLOUDY    70  62  76 E5        29.93F
OSU AIRPORT    CLOUDY    71  62  73 E6        29.93F
BOLTON FIELD   MOSUNNY   72  64  78 NE7       29.94F
RICKENBACK AFB NOT AVBL
NEWARK         CLOUDY    72  61  68 CALM      29.94F
MARION         CLOUDY    74  58  57 NE6       29.95F
LANCASTER      CLOUDY    71  63  75 NE7       29.94F
ZANESVILLE     NOT AVBL
NEW PHILLY     MOSUNNY   76  58  53 CALM      29.95S
$$



USA.gov is the U.S. government's official web portal to all federal, state and local government web resources and services.